PST,Max TemperatureF,Mean TemperatureF,Min TemperatureF,Max Dew PointF,MeanDew PointF,Min DewpointF,Max Humidity, Mean Humidity, Min Humidity, Max Sea Level PressureIn, Mean Sea Level PressureIn, Min Sea Level PressureIn, Max VisibilityMiles, Mean VisibilityMiles, Min VisibilityMiles, Max Wind SpeedMPH, Mean Wind SpeedMPH, Max Gust SpeedMPH,PrecipitationIn, CloudCover, Events, WindDirDegrees
2012-12-1,67,62,56,62,58,56,100,87,73,30.15,30.11,30.08,10,8,2,15,4,21,0.09,7,Rain,156
2012-12-2,67,63,58,61,59,56,100,89,78,30.12,30.07,30.03,10,6,2,17,8,26,0.34,8,Rain,206
2012-12-3,65,58,50,56,52,50,100,84,67,30.21,30.16,30.10,10,8,2,12,3,,0.00,4,,339
2012-12-4,63,56,48,55,51,48,100,89,78,30.27,30.23,30.18,10,5,0,10,2,17,0.00,6,Fog,107
2012-12-5,66,58,49,61,57,49,100,89,78,30.22,30.13,30.06,10,3,0,14,4,,0.00,7,Fog,320
2012-12-6,69,62,54,61,56,49,100,86,72,30.06,30.03,29.98,10,5,0,21,11,30,0.00,3,Fog-Rain,308
2012-12-7,73,61,49,49,43,37,77,54,31,30.04,30.01,29.97,10,10,10,17,12,24,0.00,0,,7
2012-12-8,68,53,38,52,43,34,96,67,37,30.02,29.98,29.95,10,9,5,20,4,,0.00,0,,287
2012-12-9,70,57,43,45,42,38,86,62,37,30.14,30.05,29.98,10,10,9,15,5,18,0.00,0,,248
2012-12-10,73,57,40,49,42,36,92,60,27,30.18,30.12,30.08,10,10,10,9,2,10,0.00,0,,153
2012-12-11,69,54,39,52,44,35,93,66,39,30.07,30.01,29.96,10,10,7,14,4,,0.00,3,,214
2012-12-12,60,51,41,50,46,39,100,80,60,29.96,29.90,29.87,10,5,0,18,4,23,0.18,6,Fog-Rain,205
2012-12-13,58,47,35,45,39,34,100,76,51,29.90,29.86,29.81,10,6,0,17,5,32,0.01,1,Fog,323
2012-12-14,54,44,33,40,36,32,96,73,50,30.03,29.92,29.85,10,10,8,8,2,10,0.01,4,,157
2012-12-15,56,45,34,47,39,33,100,74,47,30.12,30.08,30.03,10,10,5,10,5,,0.07,5,Rain,114
2012-12-16,62,56,49,55,51,42,96,82,67,30.17,30.10,30.05,10,9,4,14,4,17,0.02,8,Rain,91
2012-12-17,63,58,53,54,52,50,93,79,65,30.17,30.09,30.00,10,9,2,16,5,20,0.04,8,Rain,161
2012-12-18,56,47,37,54,44,30,93,70,47,30.17,30.01,29.96,10,8,1,24,9,36,0.10,5,Rain,318
2012-12-19,58,44,30,33,28,21,89,57,24,30.29,30.25,30.18,10,10,9,20,6,24,0.00,0,,340
2012-12-20,60,45,29,35,30,25,85,57,28,30.26,30.19,30.12,10,10,7,9,3,13,0.00,0,,143
2012-12-21,61,47,32,43,37,28,85,67,49,30.15,30.09,30.06,10,10,10,10,4,13,0.00,3,,147
2012-12-22,59,54,48,54,50,43,100,83,66,30.18,30.10,30.04,10,6,1,15,7,20,0.60,8,Rain,149
2012-12-23,60,53,45,57,52,45,100,88,75,30.21,30.11,30.04,10,6,2,16,8,22,0.23,7,Rain,167
2012-12-24,64,54,44,57,51,40,100,76,52,30.17,30.08,30.03,10,7,2,23,9,25,0.18,5,Rain,294
2012-12-25,59,49,39,50,43,38,93,74,55,30.17,30.04,29.95,10,8,2,22,4,26,0.19,6,Rain,171
2012-12-26,56,48,39,50,46,38,100,86,71,30.12,30.02,29.94,10,9,2,21,6,24,0.21,5,Rain,282
2012-12-27,57,47,36,42,38,34,100,76,51,30.18,30.12,30.08,10,10,6,18,5,37,0.00,2,,319
2012-12-28,56,44,31,40,36,31,96,71,46,30.20,30.13,30.07,10,10,9,8,3,,0.00,2,,140
2012-12-29,56,47,37,45,42,37,100,81,61,30.08,30.04,29.98,10,8,2,14,3,16,0.47,5,Rain,115
2012-12-30,57,45,33,43,37,33,100,77,54,30.18,30.07,30.01,10,9,6,15,4,21,0.00,2,,347
2012-12-31,56,44,32,38,35,30,96,70,43,30.28,30.24,30.19,10,9,5,16,4,,0.00,1,,224